| time (UTC) | temp F | wind direction | speed MPH | gust MPH | rain 1hr in | rain 24hr in | rain mn in | humidity % | barometer mb |
| 20260906123046 | 66 | 305 | 3.0 | 10.0 | 0.00 | 0.00 | 0.00 | 49 | 1027.3 |
| 20260906122549 | 66 | 247 | 6.0 | 9.0 | 0.00 | 0.00 | 0.00 | 49 | 1027.5 |
| 20260906122043 | 65 | 210 | 2.0 | 9.0 | 0.00 | 0.00 | 0.00 | 49 | 1027.5 |
| 20260906121543 | 65 | 245 | 2.0 | 10.0 | 0.00 | 0.00 | 0.00 | 50 | 1027.4 |
| 20260906121052 | 65 | 189 | 6.0 | 12.0 | 0.00 | 0.00 | 0.00 | 50 | 1027.3 |
| 20260906120550 | 65 | 207 | 4.0 | 9.0 | 0.00 | 0.00 | 0.00 | 50 | 1027.5 |
| 20260906120046 | 64 | 325 | 4.0 | 12.0 | 0.00 | 0.00 | 0.00 | 51 | 1027.4 |
| 20260906115546 | 64 | 187 | 6.0 | 13.0 | 0.00 | 0.00 | 0.00 | 51 | 1027.5 |
| 20260906115052 | 64 | 222 | 13.0 | 13.0 | 0.00 | 0.00 | 0.00 | 50 | 1027.5 |
| 20260906114546 | 64 | 216 | 4.0 | 15.0 | 0.00 | 0.00 | 0.00 | 49 | 1027.5 |
| 20260906114043 | 65 | 145 | 3.0 | 10.0 | 0.00 | 0.00 | 0.00 | 51 | 1027.5 |
| 20260906113547 | 64 | 235 | 8.0 | 10.0 | 0.00 | 0.00 | 0.00 | 51 | 1027.7 |
| 20260906113043 | 64 | 173 | 6.0 | 10.0 | 0.00 | 0.00 | 0.00 | 52 | 1027.7 |
| 20260906112543 | 64 | 211 | 7.0 | 12.0 | 0.00 | 0.00 | 0.00 | 51 | 1027.7 |
| 20260906112043 | 64 | 167 | 4.0 | 9.0 | 0.00 | 0.00 | 0.00 | 52 | 1027.7 |
| 20260906111546 | 64 | 338 | 4.0 | 10.0 | 0.00 | 0.00 | 0.00 | 52 | 1027.8 |
| 20260906111046 | 65 | 262 | 3.0 | 7.0 | 0.00 | 0.00 | 0.00 | 51 | 1027.7 |
| 20260906110544 | 64 | 273 | 3.0 | 7.0 | 0.00 | 0.00 | 0.00 | 53 | 1027.8 |
| 20260906110043 | 63 | 282 | 4.0 | 9.0 | 0.00 | 0.00 | 0.00 | 53 | 1027.8 |
| 20260906105549 | 63 | 191 | 3.0 | 7.0 | 0.00 | 0.00 | 0.00 | 54 | 1027.8 |
| 20260906105046 | 63 | 243 | 3.0 | 9.0 | 0.00 | 0.00 | 0.00 | 55 | 1027.9 |
| 20260906104543 | 63 | 216 | 8.0 | 11.0 | 0.00 | 0.00 | 0.00 | 54 | 1028.0 |
| 20260906104043 | 63 | 282 | 8.0 | 10.0 | 0.00 | 0.00 | 0.00 | 55 | 1028.1 |
| 20260906103548 | 63 | 235 | 4.0 | 9.0 | 0.00 | 0.00 | 0.00 | 53 | 1028.1 |
| 20260906103046 | 64 | 245 | 6.0 | 11.0 | 0.00 | 0.00 | 0.00 | 52 | 1028.1 |
| 20260906102546 | 64 | 249 | 3.0 | 10.0 | 0.00 | 0.00 | 0.00 | 53 | 1028.1 |
| 20260906102043 | 64 | 277 | 1.0 | 9.0 | 0.00 | 0.00 | 0.00 | 53 | 1028.1 |
| 20260906101549 | 64 | 333 | 6.0 | 10.0 | 0.00 | 0.00 | 0.00 | 53 | 1028.2 |
| 20260906101046 | 63 | 277 | 3.0 | 11.0 | 0.00 | 0.00 | 0.00 | 54 | 1028.2 |
| 20260906100547 | 62 | 243 | 2.0 | 10.0 | 0.00 | 0.00 | 0.00 | 53 | 1028.2 |
| 20260906100046 | 62 | 248 | 5.0 | 10.0 | 0.00 | 0.00 | 0.00 | 54 | 1028.1 |
| 20260906095546 | 62 | 222 | 7.0 | 10.0 | 0.00 | 0.00 | 0.00 | 55 | 1028.2 |
| 20260906095049 | 63 | 251 | 7.0 | 9.0 | 0.00 | 0.00 | 0.00 | 55 | 1028.2 |
| 20260906094546 | 62 | 277 | 1.0 | 11.0 | 0.00 | 0.00 | 0.00 | 55 | 1028.1 |
| 20260906094052 | 62 | 254 | 4.0 | 10.0 | 0.00 | 0.00 | 0.00 | 56 | 1028.2 |
| 20260906093550 | 61 | 168 | 4.0 | 11.0 | 0.00 | 0.00 | 0.00 | 57 | 1028.2 |
| 20260906093043 | 61 | 192 | 11.0 | 11.0 | 0.00 | 0.00 | 0.00 | 57 | 1028.2 |
| 20260906092543 | 61 | 201 | 4.0 | 11.0 | 0.00 | 0.00 | 0.00 | 57 | 1028.2 |
| 20260906092043 | 61 | 147 | 5.0 | 11.0 | 0.00 | 0.00 | 0.00 | 58 | 1028.2 |
| 20260906091543 | 62 | 212 | 3.0 | 8.0 | 0.00 | 0.00 | 0.00 | 57 | 1028.2 |
| 20260906091046 | 61 | 304 | 3.0 | 9.0 | 0.00 | 0.00 | 0.00 | 59 | 1028.1 |
| 20260906090544 | 61 | 177 | 6.0 | 9.0 | 0.00 | 0.00 | 0.00 | 59 | 1028.2 |
| 20260906090043 | 60 | 218 | 5.0 | 13.0 | 0.00 | 0.00 | 0.00 | 59 | 1028.2 |
| 20260906085543 | 61 | 282 | 8.0 | 10.0 | 0.00 | 0.00 | 0.00 | 59 | 1028.1 |
| 20260906085046 | 61 | 227 | 7.0 | 14.0 | 0.00 | 0.00 | 0.00 | 58 | 1028.2 |
| 20260906084546 | 61 | 178 | 2.0 | 8.0 | 0.00 | 0.00 | 0.00 | 59 | 1028.2 |
| 20260906084049 | 60 | 226 | 5.0 | 11.0 | 0.00 | 0.00 | 0.00 | 60 | 1028.2 |
| 20260906083544 | 60 | 272 | 7.0 | 10.0 | 0.00 | 0.00 | 0.00 | 60 | 1028.2 |
| 20260906083043 | 60 | 233 | 7.0 | 10.0 | 0.00 | 0.00 | 0.00 | 61 | 1028.2 |
| 20260906082549 | 60 | 177 | 2.0 | 8.0 | 0.00 | 0.00 | 0.00 | 63 | 1028.1 |
| 20260906082046 | 60 | 193 | 2.0 | 11.0 | 0.00 | 0.00 | 0.00 | 61 | 1028.1 |
| 20260906081543 | 61 | 176 | 5.0 | 10.0 | 0.00 | 0.00 | 0.00 | 62 | 1027.9 |
| 20260906081043 | 60 | 233 | 1.0 | 7.0 | 0.00 | 0.00 | 0.00 | 63 | 1027.9 |
| 20260906080547 | 60 | 216 | 6.0 | 11.0 | 0.00 | 0.00 | 0.00 | 64 | 1027.8 |
| 20260906080043 | 59 | 182 | 7.0 | 12.0 | 0.00 | 0.00 | 0.00 | 65 | 1027.8 |
| 20260906075546 | 59 | 163 | 7.0 | 11.0 | 0.00 | 0.00 | 0.00 | 64 | 1027.7 |
| 20260906075049 | 60 | 227 | 5.0 | 8.0 | 0.00 | 0.00 | 0.00 | 65 | 1027.7 |
| 20260906074552 | 59 | 277 | 4.0 | 8.0 | 0.00 | 0.00 | 0.00 | 67 | 1027.6 |
| 20260906074043 | 59 | 220 | 2.0 | 7.0 | 0.00 | 0.00 | 0.00 | 67 | 1027.6 |
| 20260906073544 | 60 | 296 | 4.0 | 7.0 | 0.00 | 0.00 | 0.00 | 67 | 1027.6 |
| 20260906073049 | 59 | 241 | 1.0 | 9.0 | 0.00 | 0.00 | 0.00 | 69 | 1027.5 |
| 20260906072552 | 59 | 291 | 6.0 | 11.0 | 0.00 | 0.00 | 0.00 | 70 | 1027.5 |
| 20260906072043 | 58 | 244 | 5.0 | 12.0 | 0.00 | 0.00 | 0.00 | 70 | 1027.3 |
| 20260906071543 | 58 | 245 | 6.0 | 11.0 | 0.00 | 0.00 | 0.00 | 70 | 1027.3 |
| 20260906071043 | 58 | 219 | 9.0 | 13.0 | 0.00 | 0.00 | 0.00 | 70 | 1027.3 |
| 20260906070544 | 58 | 230 | 7.0 | 13.0 | 0.00 | 0.00 | 0.00 | 70 | 1027.3 |
| 20260906070043 | 59 | 181 | 9.0 | 10.0 | 0.00 | 0.00 | 0.00 | 69 | 1027.1 |
| 20260906065552 | 58 | 42 | 2.0 | 8.0 | 0.00 | 0.00 | 0.00 | 71 | 1027.0 |
| 20260906065046 | 58 | 186 | 7.0 | 9.0 | 0.00 | 0.00 | 0.00 | 71 | 1027.0 |
| 20260906064546 | 58 | 180 | 2.0 | 11.0 | 0.00 | 0.00 | 0.00 | 71 | 1027.0 |
| 20260906064046 | 58 | 179 | 6.0 | 10.0 | 0.00 | 0.00 | 0.00 | 71 | 1027.1 |
| 20260906063547 | 58 | 190 | 2.0 | 10.0 | 0.00 | 0.00 | 0.00 | 71 | 1026.9 |
| 20260906063046 | 58 | 206 | 5.0 | 9.0 | 0.00 | 0.00 | 0.00 | 71 | 1026.9 |
| 20260906062546 | 58 | 210 | 3.0 | 10.0 | 0.00 | 0.00 | 0.00 | 72 | 1027.0 |
| 20260906062046 | 58 | 244 | 3.0 | 11.0 | 0.00 | 0.00 | 0.00 | 72 | 1027.0 |
| 20260906061549 | 57 | 219 | 4.0 | 8.0 | 0.00 | 0.00 | 0.00 | 72 | 1027.0 |
| 20260906061046 | 57 | 208 | 4.0 | 9.0 | 0.00 | 0.00 | 0.00 | 73 | 1026.9 |
| 20260906060547 | 57 | 203 | 5.0 | 10.0 | 0.00 | 0.00 | 0.00 | 73 | 1026.8 |
| 20260906060046 | 57 | 258 | 3.0 | 8.0 | 0.00 | 0.00 | 0.00 | 73 | 1026.7 |
| 20260906055546 | 57 | 209 | 0.0 | 7.0 | 0.00 | 0.00 | 0.00 | 74 | 1026.7 |
| 20260906055046 | 56 | 203 | 5.0 | 7.0 | 0.00 | 0.00 | 0.00 | 74 | 1026.6 |
| 20260906054543 | 56 | 228 | 4.0 | 9.0 | 0.00 | 0.00 | 0.00 | 74 | 1026.6 |
| 20260906054046 | 56 | 224 | 6.0 | 8.0 | 0.00 | 0.00 | 0.00 | 76 | 1026.5 |
| 20260906053547 | 56 | 187 | 7.0 | 9.0 | 0.00 | 0.00 | 0.00 | 74 | 1026.5 |
| 20260906053043 | 56 | 204 | 5.0 | 8.0 | 0.00 | 0.00 | 0.00 | 74 | 1026.5 |
| 20260906052546 | 56 | 190 | 7.0 | 9.0 | 0.00 | 0.00 | 0.00 | 74 | 1026.4 |
| 20260906052043 | 56 | 182 | 5.0 | 9.0 | 0.00 | 0.00 | 0.00 | 75 | 1026.3 |
| 20260906051546 | 56 | 232 | 6.0 | 9.0 | 0.00 | 0.00 | 0.00 | 75 | 1026.3 |
| 20260906051049 | 56 | 199 | 6.0 | 10.0 | 0.00 | 0.00 | 0.00 | 75 | 1026.3 |
| 20260906050544 | 56 | 208 | 8.0 | 11.0 | 0.00 | 0.00 | 0.00 | 76 | 1026.3 |
| 20260906050046 | 55 | 189 | 5.0 | 8.0 | 0.00 | 0.00 | 0.00 | 76 | 1026.3 |
| 20260906045543 | 55 | 191 | 3.0 | 7.0 | 0.00 | 0.00 | 0.00 | 76 | 1026.2 |
| 20260906045043 | 55 | 185 | 3.0 | 6.0 | 0.00 | 0.00 | 0.00 | 76 | 1026.2 |
| 20260906044549 | 55 | 195 | 1.0 | 7.0 | 0.00 | 0.00 | 0.00 | 76 | 1026.2 |
| 20260906044046 | 56 | 177 | 5.0 | 9.0 | 0.00 | 0.00 | 0.00 | 76 | 1026.2 |
| 20260906043544 | 55 | 216 | 4.0 | 8.0 | 0.00 | 0.00 | 0.00 | 76 | 1026.2 |
| 20260906043043 | 56 | 144 | 3.0 | 8.0 | 0.00 | 0.00 | 0.00 | 76 | 1026.2 |
| 20260906042543 | 56 | 206 | 7.0 | 9.0 | 0.00 | 0.00 | 0.00 | 76 | 1026.2 |
| 20260906042046 | 56 | 209 | 4.0 | 8.0 | 0.00 | 0.00 | 0.00 | 75 | 1026.1 |
| 20260906041549 | 56 | 213 | 1.0 | 7.0 | 0.00 | 0.00 | 0.00 | 75 | 1026.1 |
| 20260906041046 | 56 | 200 | 3.0 | 7.0 | 0.00 | 0.00 | 0.00 | 75 | 1026.1 |
| 20260906040544 | 56 | 231 | 5.0 | 9.0 | 0.00 | 0.00 | 0.00 | 75 | 1026.0 |
| 20260906040049 | 56 | 190 | 5.0 | 8.0 | 0.00 | 0.00 | 0.00 | 75 | 1026.0 |
| 20260906035546 | 56 | 171 | 6.0 | 9.0 | 0.00 | 0.00 | 0.00 | 75 | 1025.9 |
| 20260906035043 | 56 | 218 | 6.0 | 8.0 | 0.00 | 0.01 | 0.00 | 74 | 1025.9 |
| 20260906034543 | 56 | 204 | 5.0 | 10.0 | 0.00 | 0.02 | 0.00 | 74 | 1025.8 |
| 20260906034043 | 56 | 205 | 6.0 | 11.0 | 0.00 | 0.02 | 0.00 | 74 | 1025.8 |
| 20260906033547 | 57 | 226 | 5.0 | 9.0 | 0.00 | 0.03 | 0.00 | 74 | 1025.8 |
| 20260906033046 | 57 | 214 | 7.0 | 10.0 | 0.00 | 0.03 | 0.00 | 74 | 1025.8 |
| 20260906032543 | 57 | 221 | 3.0 | 11.0 | 0.00 | 0.05 | 0.00 | 73 | 1025.7 |
| 20260906032043 | 57 | 230 | 7.0 | 12.0 | 0.00 | 0.07 | 0.00 | 73 | 1025.8 |
| 20260906031543 | 57 | 208 | 4.0 | 11.0 | 0.00 | 0.07 | 0.00 | 73 | 1025.7 |
| 20260906031043 | 57 | 204 | 9.0 | 11.0 | 0.00 | 0.07 | 0.00 | 73 | 1025.6 |
| 20260906030547 | 57 | 197 | 8.0 | 10.0 | 0.00 | 0.07 | 0.00 | 73 | 1025.6 |
| 20260906030043 | 57 | 170 | 5.0 | 10.0 | 0.00 | 0.08 | 0.00 | 73 | 1025.7 |
| 20260906025546 | 57 | 242 | 3.0 | 8.0 | 0.00 | 0.08 | 0.00 | 73 | 1025.6 |
| 20260906025046 | 57 | 216 | 4.0 | 8.0 | 0.00 | 0.08 | 0.00 | 72 | 1025.5 |
| 20260906024543 | 57 | 213 | 8.0 | 8.0 | 0.00 | 0.08 | 0.00 | 72 | 1025.4 |
| 20260906024043 | 58 | 166 | 5.0 | 7.0 | 0.00 | 0.08 | 0.00 | 72 | 1025.5 |
| 20260906023547 | 58 | 216 | 3.0 | 9.0 | 0.00 | 0.08 | 0.00 | 72 | 1025.5 |
| 20260906023046 | 58 | 166 | 5.0 | 9.0 | 0.00 | 0.08 | 0.00 | 72 | 1025.5 |
| 20260906022543 | 58 | 203 | 5.0 | 9.0 | 0.00 | 0.08 | 0.00 | 73 | 1025.5 |
| 20260906022043 | 58 | 182 | 7.0 | 9.0 | 0.00 | 0.08 | 0.00 | 73 | 1025.5 |
| 20260906021546 | 58 | 194 | 5.0 | 10.0 | 0.00 | 0.08 | 0.00 | 73 | 1025.4 |
| 20260906021049 | 58 | 203 | 5.0 | 7.0 | 0.00 | 0.08 | 0.00 | 73 | 1025.4 |
| 20260906020547 | 58 | 222 | 6.0 | 7.0 | 0.00 | 0.08 | 0.00 | 73 | 1025.4 |
| 20260906020046 | 58 | 212 | 5.0 | 6.0 | 0.00 | 0.08 | 0.00 | 73 | 1025.3 |
| 20260906015552 | 58 | 243 | 4.0 | 7.0 | 0.00 | 0.08 | 0.00 | 73 | 1025.4 |
| 20260906015043 | 58 | 199 | 4.0 | 7.0 | 0.00 | 0.08 | 0.00 | 72 | 1025.3 |
| 20260906014546 | 58 | 212 | 5.0 | 7.0 | 0.00 | 0.08 | 0.00 | 72 | 1025.2 |
| 20260906014043 | 58 | 224 | 3.0 | 6.0 | 0.00 | 0.08 | 0.00 | 72 | 1025.2 |
| 20260906013544 | 58 | 210 | 3.0 | 7.0 | 0.00 | 0.08 | 0.00 | 72 | 1025.2 |
| 20260906013043 | 58 | 211 | 4.0 | 7.0 | 0.00 | 0.09 | 0.00 | 72 | 1025.2 |
| 20260906012543 | 58 | 212 | 4.0 | 7.0 | 0.00 | 0.09 | 0.00 | 72 | 1025.2 |
| 20260906012043 | 58 | 167 | 3.0 | 6.0 | 0.00 | 0.09 | 0.00 | 71 | 1025.3 |
| 20260906011543 | 58 | 193 | 3.0 | 5.0 | 0.00 | 0.09 | 0.00 | 71 | 1025.2 |
| 20260906011046 | 58 | 172 | 4.0 | 6.0 | 0.00 | 0.09 | 0.00 | 71 | 1025.2 |
| 20260906010544 | 58 | 201 | 4.0 | 7.0 | 0.00 | 0.09 | 0.00 | 71 | 1025.2 |
| 20260906010046 | 58 | 204 | 3.0 | 7.0 | 0.00 | 0.09 | 0.00 | 70 | 1025.3 |
| 20260906005546 | 58 | 218 | 5.0 | 7.0 | 0.00 | 0.09 | 0.00 | 70 | 1025.2 |
| 20260906005049 | 59 | 187 | 3.0 | 9.0 | 0.00 | 0.09 | 0.00 | 70 | 1025.2 |
| 20260906004543 | 59 | 224 | 3.0 | 9.0 | 0.00 | 0.09 | 0.00 | 69 | 1025.2 |
| 20260906004046 | 59 | 223 | 5.0 | 8.0 | 0.00 | 0.09 | 0.00 | 69 | 1025.2 |
| 20260906003553 | 59 | 207 | 5.0 | 9.0 | 0.00 | 0.09 | 0.00 | 69 | 1025.3 |
| 20260906003046 | 59 | 202 | 3.0 | 9.0 | 0.00 | 0.09 | 0.00 | 69 | 1025.3 |
| 20260906002546 | 59 | 205 | 3.0 | 10.0 | 0.00 | 0.09 | 0.00 | 68 | 1025.2 |
| 20260906002052 | 59 | 135 | 4.0 | 8.0 | 0.00 | 0.09 | 0.00 | 68 | 1025.2 |
| 20260906001546 | 59 | 158 | 3.0 | 9.0 | 0.00 | 0.09 | 0.00 | 68 | 1025.1 |
| 20260906001043 | 59 | 179 | 8.0 | 9.0 | 0.00 | 0.09 | 0.00 | 67 | 1025.1 |
| 20260906000544 | 59 | 212 | 8.0 | 11.0 | 0.00 | 0.09 | 0.00 | 67 | 1025.0 |
| 20260906000043 | 60 | 195 | 6.0 | 10.0 | 0.00 | 0.09 | 0.00 | 67 | 1024.9 |
| 20260905235543 | 60 | 183 | 2.0 | 8.0 | 0.00 | 0.09 | 0.00 | 67 | 1024.9 |
| 20260905235052 | 60 | 179 | 4.0 | 8.0 | 0.00 | 0.09 | 0.00 | 67 | 1024.9 |
| 20260905234546 | 60 | 234 | 4.0 | 11.0 | 0.00 | 0.09 | 0.00 | 67 | 1024.8 |
| 20260905234043 | 60 | 212 | 7.0 | 10.0 | 0.00 | 0.09 | 0.00 | 66 | 1024.7 |
| 20260905233544 | 60 | 243 | 9.0 | 11.0 | 0.00 | 0.09 | 0.00 | 66 | 1024.7 |
| 20260905233043 | 60 | 214 | 7.0 | 10.0 | 0.00 | 0.09 | 0.00 | 65 | 1024.8 |
| 20260905232543 | 60 | 241 | 6.0 | 8.0 | 0.00 | 0.09 | 0.00 | 65 | 1024.8 |
| 20260905232043 | 60 | 201 | 6.0 | 9.0 | 0.00 | 0.09 | 0.00 | 65 | 1024.7 |
| 20260905231546 | 60 | 223 | 3.0 | 12.0 | 0.00 | 0.09 | 0.00 | 64 | 1024.7 |
| 20260905231049 | 61 | 217 | 4.0 | 13.0 | 0.00 | 0.09 | 0.00 | 64 | 1024.6 |
| 20260905230547 | 61 | 210 | 8.0 | 10.0 | 0.00 | 0.09 | 0.00 | 64 | 1024.6 |
| 20260905230043 | 61 | 191 | 8.0 | 12.0 | 0.00 | 0.09 | 0.00 | 63 | 1024.7 |
| 20260905225546 | 61 | 208 | 5.0 | 9.0 | 0.00 | 0.09 | 0.00 | 63 | 1024.7 |
| 20260905225043 | 61 | 178 | 8.0 | 9.0 | 0.00 | 0.09 | 0.00 | 63 | 1024.6 |
| 20260905224552 | 61 | 191 | 7.0 | 9.0 | 0.00 | 0.09 | 0.00 | 63 | 1024.7 |
| 20260905224043 | 61 | 231 | 7.0 | 8.0 | 0.00 | 0.09 | 0.00 | 63 | 1024.5 |
| 20260905223544 | 61 | 189 | 4.0 | 8.0 | 0.00 | 0.09 | 0.00 | 62 | 1024.6 |
| 20260905223043 | 61 | 211 | 3.0 | 8.0 | 0.00 | 0.09 | 0.00 | 62 | 1024.6 |
| 20260905222552 | 61 | 183 | 2.0 | 8.0 | 0.00 | 0.09 | 0.00 | 61 | 1024.5 |
| 20260905222043 | 61 | 183 | 7.0 | 7.0 | 0.00 | 0.09 | 0.00 | 61 | 1024.5 |
| 20260905221546 | 62 | 175 | 4.0 | 9.0 | 0.00 | 0.09 | 0.00 | 60 | 1024.4 |
| 20260905221043 | 62 | 203 | 7.0 | 10.0 | 0.00 | 0.09 | 0.00 | 59 | 1024.4 |
| 20260905220544 | 62 | 216 | 8.0 | 12.0 | 0.00 | 0.09 | 0.00 | 59 | 1024.5 |
| 20260905220046 | 62 | 200 | 5.0 | 10.0 | 0.00 | 0.09 | 0.00 | 59 | 1024.4 |
| 20260905215543 | 62 | 236 | 5.0 | 9.0 | 0.00 | 0.09 | 0.00 | 59 | 1024.4 |
| 20260905215043 | 63 | 174 | 5.0 | 13.0 | 0.00 | 0.09 | 0.00 | 58 | 1024.3 |
| 20260905214549 | 63 | 223 | 6.0 | 14.0 | 0.00 | 0.09 | 0.00 | 58 | 1024.2 |
| 20260905214043 | 63 | 195 | 13.0 | 16.0 | 0.00 | 0.09 | 0.00 | 58 | 1024.2 |
| 20260905213547 | 63 | 199 | 8.0 | 16.0 | 0.00 | 0.09 | 0.00 | 57 | 1024.2 |
| 20260905213046 | 63 | 193 | 10.0 | 14.0 | 0.00 | 0.09 | 0.00 | 57 | 1024.1 |
| 20260905212546 | 63 | 187 | 9.0 | 12.0 | 0.00 | 0.09 | 0.00 | 57 | 1024.1 |
| 20260905212043 | 63 | 204 | 12.0 | 14.0 | 0.00 | 0.09 | 0.00 | 57 | 1024.0 |
| 20260905211543 | 63 | 183 | 4.0 | 13.0 | 0.00 | 0.09 | 0.00 | 57 | 1024.0 |
| 20260905211049 | 63 | 198 | 6.0 | 13.0 | 0.00 | 0.09 | 0.00 | 57 | 1024.0 |
| 20260905210553 | 63 | 206 | 7.0 | 13.0 | 0.00 | 0.09 | 0.00 | 56 | 1024.0 |
| 20260905210043 | 63 | 218 | 6.0 | 14.0 | 0.00 | 0.09 | 0.00 | 56 | 1023.9 |
| 20260905205549 | 63 | 203 | 11.0 | 12.0 | 0.00 | 0.09 | 0.00 | 56 | 1023.9 |
| 20260905205049 | 63 | 214 | 4.0 | 16.0 | 0.00 | 0.09 | 0.00 | 56 | 1023.8 |
| 20260905204546 | 63 | 208 | 9.0 | 15.0 | 0.00 | 0.09 | 0.00 | 56 | 1023.7 |
| 20260905204046 | 63 | 230 | 9.0 | 14.0 | 0.00 | 0.09 | 0.00 | 55 | 1023.7 |
| 20260905203544 | 63 | 143 | 6.0 | 11.0 | 0.00 | 0.09 | 0.00 | 55 | 1023.7 |
| 20260905203043 | 63 | 170 | 6.0 | 14.0 | 0.00 | 0.09 | 0.00 | 55 | 1023.5 |
| 20260905202546 | 63 | 235 | 13.0 | 14.0 | 0.00 | 0.09 | 0.00 | 55 | 1023.4 |
| 20260905202049 | 64 | 172 | 9.0 | 15.0 | 0.00 | 0.09 | 0.00 | 55 | 1023.4 |
| 20260905201543 | 64 | 185 | 8.0 | 15.0 | 0.00 | 0.09 | 0.00 | 55 | 1023.3 |
| 20260905201046 | 64 | 212 | 7.0 | 15.0 | 0.00 | 0.09 | 0.00 | 55 | 1023.3 |
| 20260905200544 | 64 | 196 | 4.0 | 16.0 | 0.00 | 0.09 | 0.00 | 55 | 1023.2 |
| 20260905200046 | 64 | 198 | 9.0 | 13.0 | 0.00 | 0.09 | 0.00 | 55 | 1023.2 |
| 20260905195543 | 64 | 204 | 9.0 | 14.0 | 0.00 | 0.09 | 0.00 | 55 | 1023.0 |
| 20260905195043 | 64 | 225 | 13.0 | 13.0 | 0.00 | 0.09 | 0.00 | 55 | 1023.0 |
| 20260905194552 | 64 | 203 | 9.0 | 15.0 | 0.00 | 0.09 | 0.00 | 55 | 1022.9 |
| 20260905194046 | 64 | 222 | 10.0 | 14.0 | 0.00 | 0.09 | 0.00 | 55 | 1022.8 |
| 20260905193547 | 64 | 192 | 9.0 | 15.0 | 0.00 | 0.09 | 0.00 | 54 | 1022.8 |
| 20260905193049 | 65 | 212 | 9.0 | 15.0 | 0.00 | 0.09 | 0.00 | 55 | 1022.7 |
| 20260905192543 | 64 | 210 | 8.0 | 14.0 | 0.00 | 0.09 | 0.00 | 55 | 1022.6 |
| 20260905192043 | 64 | 183 | 11.0 | 14.0 | 0.00 | 0.09 | 0.00 | 55 | 1022.7 |
| 20260905191546 | 65 | 195 | 10.0 | 13.0 | 0.00 | 0.09 | 0.00 | 55 | 1022.6 |
| 20260905191043 | 65 | 182 | 7.0 | 13.0 | 0.00 | 0.09 | 0.00 | 55 | 1022.7 |
| 20260905190544 | 65 | 182 | 10.0 | 13.0 | 0.00 | 0.09 | 0.00 | 55 | 1022.6 |
| 20260905190043 | 65 | 191 | 10.0 | 13.0 | 0.00 | 0.09 | 0.00 | 55 | 1022.5 |
| 20260905185543 | 65 | 167 | 6.0 | 13.0 | 0.00 | 0.09 | 0.00 | 54 | 1022.5 |
| 20260905185043 | 65 | 196 | 9.0 | 9.0 | 0.00 | 0.09 | 0.00 | 55 | 1022.4 |
| 20260905184546 | 65 | 181 | 4.0 | 7.0 | 0.00 | 0.09 | 0.00 | 55 | 1022.3 |
| 20260905184043 | 65 | 168 | 3.0 | 8.0 | 0.00 | 0.09 | 0.00 | 55 | 1022.3 |
| 20260905183544 | 65 | 236 | 4.0 | 9.0 | 0.00 | 0.09 | 0.00 | 54 | 1022.2 |
| 20260905183043 | 66 | 189 | 4.0 | 9.0 | 0.00 | 0.09 | 0.00 | 54 | 1022.2 |
| 20260905182543 | 66 | 199 | 3.0 | 9.0 | 0.00 | 0.09 | 0.00 | 54 | 1022.2 |
| 20260905182049 | 66 | 203 | 6.0 | 9.0 | 0.00 | 0.09 | 0.00 | 53 | 1022.1 |
| 20260905181549 | 66 | 188 | 6.0 | 11.0 | 0.00 | 0.09 | 0.00 | 53 | 1022.0 |
| 20260905181043 | 66 | 206 | 10.0 | 10.0 | 0.00 | 0.09 | 0.00 | 53 | 1021.9 |
| 20260905180547 | 66 | 231 | 2.0 | 10.0 | 0.00 | 0.09 | 0.00 | 52 | 1021.8 |
| 20260905180052 | 66 | 233 | 8.0 | 8.0 | 0.00 | 0.09 | 0.00 | 52 | 1021.7 |
| 20260905175546 | 67 | 241 | 5.0 | 6.0 | 0.00 | 0.09 | 0.00 | 52 | 1021.6 |
| 20260905175046 | 67 | 202 | 5.0 | 9.0 | 0.00 | 0.09 | 0.00 | 52 | 1021.5 |
| 20260905174546 | 67 | 247 | 6.0 | 11.0 | 0.00 | 0.09 | 0.00 | 51 | 1021.4 |
| 20260905174043 | 67 | 240 | 6.0 | 11.0 | 0.00 | 0.09 | 0.00 | 50 | 1021.3 |
| 20260905173544 | 67 | 214 | 13.0 | 14.0 | 0.00 | 0.09 | 0.00 | 50 | 1021.2 |
| 20260905173043 | 67 | 181 | 7.0 | 11.0 | 0.00 | 0.09 | 0.00 | 50 | 1021.1 |
| 20260905172543 | 68 | 217 | 7.0 | 9.0 | 0.00 | 0.09 | 0.00 | 50 | 1021.1 |
| 20260905172046 | 68 | 239 | 4.0 | 16.0 | 0.00 | 0.09 | 0.00 | 49 | 1021.0 |
| 20260905171549 | 68 | 237 | 4.0 | 11.0 | 0.00 | 0.09 | 0.00 | 49 | 1020.9 |
| 20260905171043 | 68 | 190 | 2.0 | 10.0 | 0.00 | 0.09 | 0.00 | 49 | 1020.8 |
| 20260905170550 | 68 | 207 | 5.0 | 15.0 | 0.00 | 0.09 | 0.00 | 48 | 1020.7 |
| 20260905170043 | 69 | 262 | 4.0 | 12.0 | 0.00 | 0.09 | 0.00 | 48 | 1020.6 |
| 20260905165550 | 69 | 253 | 8.0 | 11.0 | 0.00 | 0.09 | 0.00 | 47 | 1020.5 |
| 20260905165046 | 69 | 264 | 6.0 | 15.0 | 0.00 | 0.09 | 0.00 | 47 | 1020.4 |
| 20260905164546 | 69 | 264 | 2.0 | 11.0 | 0.00 | 0.09 | 0.00 | 47 | 1020.3 |
| 20260905164044 | 70 | 219 | 9.0 | 14.0 | 0.00 | 0.09 | 0.00 | 47 | 1020.3 |
| 20260905163546 | 70 | 236 | 12.0 | 14.0 | 0.00 | 0.09 | 0.00 | 47 | 1020.2 |
| 20260905163052 | 70 | 225 | 8.0 | 14.0 | 0.00 | 0.09 | 0.00 | 47 | 1020.1 |
| 20260905162543 | 70 | 202 | 12.0 | 16.0 | 0.00 | 0.09 | 0.00 | 47 | 1020.0 |
| 20260905162043 | 70 | 216 | 6.0 | 15.0 | 0.00 | 0.09 | 0.00 | 47 | 1020.0 |
| 20260905161546 | 70 | 218 | 9.0 | 15.0 | 0.00 | 0.09 | 0.00 | 47 | 1019.9 |
| 20260905161044 | 70 | 310 | 8.0 | 10.0 | 0.00 | 0.09 | 0.00 | 47 | 1019.8 |
| 20260905160552 | 70 | 264 | 11.0 | 11.0 | 0.00 | 0.09 | 0.00 | 48 | 1019.8 |
| 20260905160046 | 70 | 282 | 9.0 | 19.0 | 0.00 | 0.09 | 0.00 | 47 | 1019.7 |
| 20260905155543 | 71 | 222 | 7.0 | 13.0 | 0.00 | 0.09 | 0.00 | 47 | 1019.6 |
| 20260905155043 | 71 | 242 | 7.0 | 14.0 | 0.00 | 0.09 | 0.00 | 46 | 1019.5 |
| 20260905154549 | 71 | 257 | 5.0 | 12.0 | 0.00 | 0.09 | 0.00 | 47 | 1019.6 |
| 20260905154047 | 71 | 256 | 7.0 | 17.0 | 0.00 | 0.09 | 0.00 | 46 | 1019.6 |
| 20260905153552 | 71 | 241 | 6.0 | 10.0 | 0.00 | 0.09 | 0.00 | 46 | 1019.5 |
| 20260905153043 | 71 | 161 | 4.0 | 12.0 | 0.00 | 0.09 | 0.00 | 46 | 1019.4 |
| 20260905152546 | 71 | 253 | 7.0 | 15.0 | 0.00 | 0.09 | 0.00 | 46 | 1019.5 |
| 20260905152043 | 71 | 203 | 4.0 | 13.0 | 0.00 | 0.09 | 0.00 | 47 | 1019.4 |
| 20260905151546 | 71 | 304 | 12.0 | 14.0 | 0.00 | 0.09 | 0.00 | 46 | 1019.3 |
| 20260905151044 | 71 | 216 | 6.0 | 14.0 | 0.00 | 0.09 | 0.00 | 46 | 1019.3 |
| 20260905150543 | 71 | 229 | 13.0 | 18.0 | 0.00 | 0.09 | 0.00 | 46 | 1019.4 |
| 20260905150046 | 71 | 185 | 15.0 | 21.0 | 0.00 | 0.09 | 0.00 | 45 | 1019.3 |
| 20260905145543 | 71 | 212 | 12.0 | 19.0 | 0.00 | 0.09 | 0.00 | 45 | 1019.3 |
| 20260905145043 | 71 | 202 | 11.0 | 24.0 | 0.00 | 0.09 | 0.00 | 45 | 1019.2 |
| 20260905144543 | 71 | 222 | 2.0 | 17.0 | 0.00 | 0.09 | 0.00 | 45 | 1019.2 |
| 20260905144044 | 71 | 194 | 12.0 | 22.0 | 0.00 | 0.09 | 0.00 | 44 | 1019.2 |
| 20260905143543 | 71 | 225 | 9.0 | 18.0 | 0.00 | 0.09 | 0.00 | 45 | 1019.2 |
| 20260905143043 | 71 | 261 | 4.0 | 17.0 | 0.00 | 0.09 | 0.00 | 45 | 1019.2 |
| 20260905142546 | 71 | 228 | 8.0 | 18.0 | 0.00 | 0.09 | 0.00 | 45 | 1019.2 |
| 20260905142046 | 71 | 282 | 6.0 | 18.0 | 0.00 | 0.09 | 0.00 | 45 | 1019.3 |
| 20260905141546 | 71 | 197 | 12.0 | 18.0 | 0.00 | 0.09 | 0.00 | 45 | 1019.2 |
| 20260905141044 | 71 | 251 | 8.0 | 16.0 | 0.00 | 0.09 | 0.00 | 45 | 1019.2 |
| 20260905140546 | 70 | 208 | 8.0 | 18.0 | 0.00 | 0.09 | 0.00 | 46 | 1019.2 |
| 20260905140043 | 70 | 224 | 11.0 | 17.0 | 0.00 | 0.09 | 0.00 | 45 | 1019.1 |
| 20260905135546 | 70 | 189 | 9.0 | 20.0 | 0.00 | 0.09 | 0.00 | 46 | 1019.2 |
| 20260905135046 | 70 | 199 | 12.0 | 19.0 | 0.00 | 0.09 | 0.00 | 47 | 1019.1 |
| 20260905134546 | 70 | 185 | 10.0 | 18.0 | 0.00 | 0.09 | 0.00 | 48 | 1019.1 |
| 20260905134047 | 70 | 191 | 16.0 | 17.0 | 0.00 | 0.09 | 0.00 | 47 | 1019.1 |
| 20260905133543 | 71 | 233 | 4.0 | 17.0 | 0.00 | 0.09 | 0.00 | 47 | 1019.2 |
| 20260905133043 | 71 | 193 | 9.0 | 17.0 | 0.00 | 0.09 | 0.00 | 47 | 1019.1 |
| 20260905132543 | 71 | 179 | 3.0 | 23.0 | 0.00 | 0.09 | 0.00 | 47 | 1019.1 |
| 20260905132043 | 71 | 156 | 4.0 | 15.0 | 0.00 | 0.09 | 0.00 | 47 | 1019.2 |
| 20260905131549 | 70 | 193 | 7.0 | 18.0 | 0.00 | 0.09 | 0.00 | 49 | 1019.1 |
| 20260905131044 | 69 | 210 | 17.0 | 19.0 | 0.00 | 0.09 | 0.00 | 49 | 1019.2 |
| 20260905130543 | 69 | 201 | 11.0 | 23.0 | 0.00 | 0.09 | 0.00 | 49 | 1019.1 |
| 20260905130043 | 69 | 186 | 12.0 | 20.0 | 0.00 | 0.09 | 0.00 | 49 | 1019.2 |
| 20260905125543 | 70 | 166 | 11.0 | 19.0 | 0.00 | 0.09 | 0.00 | 48 | 1019.1 |
| 20260905125046 | 70 | 209 | 10.0 | 13.0 | 0.00 | 0.09 | 0.00 | 49 | 1019.2 |
| 20260905124552 | 70 | 210 | 14.0 | 20.0 | 0.00 | 0.09 | 0.00 | 48 | 1019.2 |
| 20260905124047 | 69 | 217 | 5.0 | 16.0 | 0.00 | 0.09 | 0.00 | 49 | 1019.2 |
| 20260905123543 | 69 | 219 | 12.0 | 19.0 | 0.00 | 0.09 | 0.00 | 49 | 1019.3 |